Location: Luna
(33.8188°N, 108.9564°W)
Time: 09:37:52
(UTC+00:00)

FENGYUN 1C DEB - Visible Passes

Search period start: 02 December 2023 00:00
Search period end: 12 December 2023 00:00
Orbit: 824 x 974 km, 99.3° (Epoch: 28 November)

Date Brightness Start Highest point End Pass type
(mag) Time Alt. Az. Time Alt. Az. Time Alt. Az.
02 Dec ? 02:30:06 11° N 02:30:06 11° N 02:30:16 10° N visible
03 Dec ? 02:32:31 11° N 02:32:31 11° N 02:32:39 10° N visible
04 Dec ? 02:34:56 10° N 02:34:56 10° N 02:35:02 10° N visible
05 Dec ? 02:37:20 10° N 02:37:20 10° N 02:37:24 10° N visible
06 Dec ? 02:39:43 10° N 02:39:43 10° N 02:39:45 10° N visible
07 Dec ? 02:42:07 10° N 02:42:07 10° N 02:42:08 10° N visible
